FDB739 ENVA-EKVG

Flight info

Callsign FDB739
Flight time 1h 35m
Altitude 34000
Route GOGOX DCT BARUD/M080F340 DCT ROBUR
Aircraft B38M/M-SDE1FGHILORVWXY/HB1

Departure

Time 2026-04-28 16:57
Airport Trondheim Airport, Værnes (ENVA)

Arrival

Time 2026-04-28 18:32
Airport Vágar Airport (EKVG)
Time Latitude Longitude Altitude Speed Heading
2026-04-28 16:36 63.45538 10.92080 42 ft 0 kts 179°
2026-04-28 16:48 63.45541 10.92080 52 ft 2 kts 180°
2026-04-28 16:48 63.45556 10.92080 52 ft 2 kts 179°
2026-04-28 16:48 63.45566 10.92080 51 ft 2 kts 173°
2026-04-28 16:49 63.45580 10.92068 51 ft 2 kts 144°
2026-04-28 16:49 63.45590 10.92045 51 ft 2 kts 121°
2026-04-28 16:49 63.45596 10.92014 51 ft 2 kts 97°
2026-04-28 16:49 63.45596 10.91999 51 ft 1 kts 86°
2026-04-28 16:50 63.45596 10.91990 51 ft 0 kts 89°
2026-04-28 16:51 63.45596 10.91998 51 ft 3 kts 89°
2026-04-28 16:51 63.45597 10.92098 52 ft 10 kts 89°
2026-04-28 16:51 63.45597 10.92264 53 ft 12 kts 90°
2026-04-28 16:52 63.45596 10.92513 57 ft 19 kts 91°
2026-04-28 16:52 63.45594 10.92792 59 ft 18 kts 91°
2026-04-28 16:52 63.45593 10.93087 63 ft 19 kts 89°
2026-04-28 16:52 63.45592 10.93390 70 ft 19 kts 89°
2026-04-28 16:53 63.45593 10.93698 79 ft 19 kts 90°
2026-04-28 16:53 63.45628 10.93908 87 ft 12 kts 45°
2026-04-28 16:53 63.45651 10.93957 89 ft 0 kts 43°
2026-04-28 16:55 63.45666 10.93990 91 ft 7 kts 43°
2026-04-28 16:55 63.45725 10.94117 96 ft 13 kts 44°
2026-04-28 16:55 63.45757 10.94146 97 ft 4 kts 275°
2026-04-28 16:55 63.45756 10.94109 95 ft 3 kts 272°
2026-04-28 16:56 63.45758 10.94006 92 ft 15 kts 272°
2026-04-28 16:56 63.45759 10.93215 70 ft 84 kts 269°
2026-04-28 16:56 63.45762 10.91502 49 ft 135 kts 270°
2026-04-28 16:56 63.45763 10.89123 119 ft 167 kts 270°
2026-04-28 16:57 63.45790 10.86604 750 ft 161 kts 272°
2026-04-28 16:57 63.45845 10.84099 1313 ft 164 kts 274°
2026-04-28 16:57 63.45856 10.81474 1680 ft 177 kts 271°
2026-04-28 16:57 63.45834 10.78655 1943 ft 190 kts 270°
2026-04-28 16:58 63.45801 10.75609 2174 ft 207 kts 270°
2026-04-28 16:58 63.45788 10.72319 2486 ft 220 kts 271°
2026-04-28 16:58 63.45789 10.68787 2790 ft 236 kts 272°
2026-04-28 16:58 63.45793 10.65048 3150 ft 249 kts 272°
2026-04-28 16:59 63.45795 10.61164 3728 ft 251 kts 272°
2026-04-28 16:59 63.45794 10.57291 4361 ft 251 kts 272°
2026-04-28 16:59 63.45790 10.53416 4956 ft 253 kts 271°
2026-04-28 16:59 63.45618 10.49530 5571 ft 255 kts 264°
2026-04-28 17:00 63.45273 10.45657 6164 ft 258 kts 262°
2026-04-28 17:00 63.44886 10.41797 6804 ft 257 kts 262°
2026-04-28 17:00 63.44504 10.37898 7337 ft 261 kts 264°
2026-04-28 17:00 63.44136 10.33912 7842 ft 265 kts 263°
2026-04-28 17:01 63.43769 10.29890 8405 ft 268 kts 263°
2026-04-28 17:01 63.43387 10.25843 8996 ft 270 kts 263°
2026-04-28 17:01 63.43001 10.21747 9539 ft 274 kts 263°
2026-04-28 17:01 63.42614 10.17603 10097 ft 277 kts 264°
2026-04-28 17:02 63.42222 10.13400 10632 ft 282 kts 264°
2026-04-28 17:02 63.41951 10.10501 10825 ft 291 kts 264°
2026-04-28 17:02 63.41385 10.04442 11146 ft 310 kts 264°
2026-04-28 17:02 63.40936 9.99651 11369 ft 325 kts 264°
2026-04-28 17:03 63.39967 9.89439 11804 ft 351 kts 263°
2026-04-28 17:03 63.39455 9.84133 12302 ft 354 kts 263°
2026-04-28 17:03 63.38935 9.78785 12849 ft 357 kts 264°
2026-04-28 17:04 63.37977 9.67855 13817 ft 364 kts 268°
2026-04-28 17:04 63.37646 9.62307 14389 ft 364 kts 270°
2026-04-28 17:05 63.37081 9.51089 15429 ft 371 kts 271°
2026-04-28 17:05 63.36790 9.45410 15984 ft 373 kts 271°
2026-04-28 17:05 63.36483 9.39708 16531 ft 375 kts 271°
2026-04-28 17:06 63.35832 9.28121 17538 ft 381 kts 270°
2026-04-28 17:06 63.35496 9.22277 17990 ft 385 kts 270°
2026-04-28 17:06 63.34804 9.10491 18983 ft 390 kts 270°
2026-04-28 17:07 63.34451 9.04559 19489 ft 391 kts 270°
2026-04-28 17:07 63.34095 8.98608 20013 ft 392 kts 270°
2026-04-28 17:07 63.33735 8.92598 20414 ft 396 kts 270°
2026-04-28 17:07 63.33367 8.86506 20930 ft 397 kts 271°
2026-04-28 17:08 63.32999 8.80426 21298 ft 402 kts 271°
2026-04-28 17:08 63.32625 8.74299 21803 ft 402 kts 271°
2026-04-28 17:08 63.32246 8.68149 22159 ft 407 kts 271°
2026-04-28 17:08 63.31862 8.61940 22566 ft 409 kts 270°
2026-04-28 17:09 63.31472 8.55729 23088 ft 408 kts 270°
2026-04-28 17:09 63.31077 8.49461 23382 ft 414 kts 271°
2026-04-28 17:09 63.30674 8.43144 23898 ft 413 kts 271°
2026-04-28 17:09 63.30271 8.36831 24199 ft 417 kts 271°
2026-04-28 17:10 63.29862 8.30470 24561 ft 420 kts 270°
2026-04-28 17:10 63.29452 8.24076 24920 ft 422 kts 270°
2026-04-28 17:10 63.29038 8.17635 25230 ft 426 kts 270°
2026-04-28 17:10 63.28614 8.11144 25623 ft 427 kts 269°
2026-04-28 17:11 63.28181 8.04674 26024 ft 428 kts 269°
2026-04-28 17:11 63.27741 7.98101 26292 ft 432 kts 269°
2026-04-28 17:11 63.27297 7.91501 26584 ft 435 kts 269°
2026-04-28 17:11 63.26848 7.84888 26936 ft 437 kts 270°
2026-04-28 17:12 63.26391 7.78263 27360 ft 437 kts 269°
2026-04-28 17:12 63.25933 7.71634 27627 ft 440 kts 269°
2026-04-28 17:12 63.25473 7.64934 27878 ft 444 kts 270°
2026-04-28 17:12 63.25002 7.58206 28283 ft 443 kts 269°
2026-04-28 17:13 63.24523 7.51456 28654 ft 444 kts 269°
2026-04-28 17:13 63.24045 7.44711 28844 ft 448 kts 269°
2026-04-28 17:13 63.23562 7.37917 29183 ft 449 kts 269°
2026-04-28 17:13 63.23073 7.31121 29544 ft 449 kts 268°
2026-04-28 17:14 63.22581 7.24316 29809 ft 452 kts 268°
2026-04-28 17:14 63.22085 7.17467 30059 ft 454 kts 268°
2026-04-28 17:14 63.21584 7.10628 30496 ft 452 kts 268°
2026-04-28 17:14 63.21078 7.03760 30873 ft 451 kts 268°
2026-04-28 17:15 63.20573 6.96939 31161 ft 452 kts 268°
2026-04-28 17:15 63.20063 6.90143 31606 ft 449 kts 268°
2026-04-28 17:15 63.19551 6.83389 32081 ft 446 kts 269°
2026-04-28 17:15 63.19039 6.76704 32555 ft 442 kts 268°
2026-04-28 17:16 63.18526 6.70053 32860 ft 442 kts 268°
2026-04-28 17:16 63.18013 6.63378 33077 ft 444 kts 269°
2026-04-28 17:16 63.17492 6.56640 33312 ft 445 kts 268°
2026-04-28 17:16 63.16971 6.49929 33584 ft 445 kts 269°
2026-04-28 17:17 63.16447 6.43291 34177 ft 438 kts 269°
2026-04-28 17:17 63.15926 6.36730 34426 ft 437 kts 268°
2026-04-28 17:17 63.14881 6.23583 34437 ft 435 kts 268°
2026-04-28 17:18 63.13834 6.10485 34437 ft 434 kts 268°
2026-04-28 17:18 63.12776 5.97448 34438 ft 435 kts 268°
2026-04-28 17:19 63.11701 5.84368 34443 ft 436 kts 267°
2026-04-28 17:19 63.10608 5.71284 34443 ft 435 kts 267°
2026-04-28 17:20 63.09682 5.60382 34440 ft 434 kts 267°
2026-04-28 17:20 63.08384 5.45177 34446 ft 434 kts 267°
2026-04-28 17:21 63.07265 5.32191 34445 ft 435 kts 266°
2026-04-28 17:22 63.05555 5.12642 34446 ft 434 kts 266°
2026-04-28 17:22 63.04404 4.99689 34441 ft 435 kts 266°
2026-04-28 17:23 63.02646 4.80151 34436 ft 437 kts 265°
2026-04-28 17:23 63.01452 4.67132 34442 ft 435 kts 265°
2026-04-28 17:24 63.00253 4.54153 34444 ft 436 kts 265°
2026-04-28 17:24 62.99040 4.41189 34452 ft 436 kts 265°
2026-04-28 17:25 62.97196 4.21645 34429 ft 438 kts 265°
2026-04-28 17:26 62.95948 4.08619 34422 ft 439 kts 264°
2026-04-28 17:26 62.94689 3.95616 34426 ft 437 kts 264°
2026-04-28 17:27 62.93427 3.82692 34431 ft 436 kts 264°
2026-04-28 17:27 62.92147 3.69749 34429 ft 436 kts 264°
2026-04-28 17:28 62.90859 3.56843 34435 ft 436 kts 264°
2026-04-28 17:28 62.88900 3.37520 34431 ft 434 kts 264°
2026-04-28 17:29 62.87584 3.24640 34433 ft 436 kts 263°
2026-04-28 17:30 62.85592 3.05412 34435 ft 434 kts 263°
2026-04-28 17:30 62.83573 2.86235 34429 ft 433 kts 263°
2026-04-28 17:31 62.81537 2.67109 34437 ft 434 kts 263°
2026-04-28 17:32 62.79475 2.48024 34438 ft 433 kts 262°
2026-04-28 17:32 62.78081 2.35287 34441 ft 433 kts 262°
2026-04-28 17:33 62.76675 2.22547 34438 ft 435 kts 261°
2026-04-28 17:33 62.75730 2.14051 34434 ft 433 kts 261°
2026-04-28 17:34 62.73833 1.97167 34436 ft 433 kts 261°
2026-04-28 17:34 62.72393 1.84480 34433 ft 432 kts 261°
2026-04-28 17:35 62.70951 1.71890 34431 ft 431 kts 261°
2026-04-28 17:35 62.69501 1.59326 34422 ft 430 kts 261°
2026-04-28 17:36 62.68037 1.46753 34416 ft 430 kts 261°
2026-04-28 17:36 62.66568 1.34242 34418 ft 430 kts 260°
2026-04-28 17:37 62.65086 1.21725 34427 ft 431 kts 260°
2026-04-28 17:37 62.63593 1.09223 34426 ft 429 kts 259°
2026-04-28 17:38 62.62086 0.96742 34421 ft 428 kts 259°
2026-04-28 17:38 62.60576 0.84322 34423 ft 429 kts 259°
2026-04-28 17:39 62.59053 0.71891 34419 ft 429 kts 259°
2026-04-28 17:40 62.56750 0.53284 34418 ft 428 kts 259°
2026-04-28 17:40 62.55201 0.40898 34426 ft 429 kts 259°
2026-04-28 17:41 62.53642 0.28526 34424 ft 429 kts 258°
2026-04-28 17:41 62.52067 0.16136 34425 ft 428 kts 258°
2026-04-28 17:42 62.50504 0.03805 34427 ft 427 kts 260°
2026-04-28 17:42 62.49361 -0.08652 34421 ft 424 kts 264°
2026-04-28 17:43 62.48463 -0.21162 34420 ft 424 kts 265°
2026-04-28 17:43 62.47614 -0.33732 34419 ft 424 kts 265°
2026-04-28 17:44 62.46748 -0.46277 34418 ft 425 kts 265°
2026-04-28 17:44 62.45857 -0.58836 34424 ft 425 kts 264°
2026-04-28 17:45 62.44942 -0.71428 34425 ft 427 kts 263°
2026-04-28 17:45 62.44012 -0.84002 34424 ft 426 kts 263°
2026-04-28 17:46 62.43074 -0.96537 34425 ft 426 kts 263°
2026-04-28 17:46 62.42123 -1.09090 34422 ft 426 kts 263°
2026-04-28 17:47 62.41160 -1.21645 34417 ft 425 kts 263°
2026-04-28 17:47 62.40189 -1.34144 34415 ft 425 kts 263°
2026-04-28 17:48 62.39206 -1.46643 34419 ft 426 kts 263°
2026-04-28 17:48 62.38213 -1.59124 34416 ft 426 kts 263°
2026-04-28 17:49 62.37202 -1.71670 34412 ft 427 kts 262°
2026-04-28 17:49 62.36183 -1.84182 34409 ft 427 kts 262°
2026-04-28 17:50 62.35150 -1.96697 34408 ft 427 kts 262°
2026-04-28 17:50 62.34104 -2.09238 34408 ft 427 kts 262°
2026-04-28 17:51 62.33625 -2.21607 34356 ft 405 kts 275°
2026-04-28 17:51 62.33468 -2.27504 34382 ft 391 kts 262°
2026-04-28 17:51 62.32953 -2.33065 34471 ft 374 kts 262°
2026-04-28 17:51 62.32485 -2.38409 34477 ft 359 kts 262°
2026-04-28 17:52 62.32025 -2.43598 34483 ft 355 kts 262°
2026-04-28 17:52 62.30613 -2.59116 34478 ft 353 kts 262°
2026-04-28 17:53 62.29674 -2.69393 34486 ft 354 kts 261°
2026-04-28 17:53 62.28720 -2.79843 34485 ft 365 kts 261°
2026-04-28 17:54 62.27747 -2.90694 34485 ft 377 kts 261°
2026-04-28 17:54 62.26748 -3.01963 34063 ft 401 kts 261°
2026-04-28 17:55 62.26219 -3.07914 33660 ft 417 kts 261°
2026-04-28 17:55 62.25669 -3.14067 33261 ft 427 kts 261°
2026-04-28 17:55 62.25107 -3.20321 32861 ft 433 kts 261°
2026-04-28 17:55 62.24534 -3.26656 32459 ft 433 kts 261°
2026-04-28 17:56 62.23958 -3.32951 31945 ft 434 kts 261°
2026-04-28 17:56 62.23380 -3.39213 31416 ft 429 kts 261°
2026-04-28 17:56 62.22804 -3.45404 30893 ft 424 kts 261°
2026-04-28 17:56 62.22235 -3.51509 30370 ft 419 kts 261°
2026-04-28 17:57 62.21670 -3.57555 29835 ft 414 kts 261°
2026-04-28 17:57 62.21111 -3.63523 29324 ft 409 kts 261°
2026-04-28 17:57 62.20558 -3.69445 28918 ft 403 kts 260°
2026-04-28 17:57 62.20013 -3.75282 28524 ft 402 kts 260°
2026-04-28 17:58 62.19469 -3.81111 28128 ft 402 kts 260°
2026-04-28 17:58 62.18928 -3.86929 27729 ft 400 kts 260°
2026-04-28 17:58 62.18391 -3.92703 27331 ft 397 kts 260°
2026-04-28 17:58 62.17860 -3.98438 26933 ft 394 kts 260°
2026-04-28 17:59 62.17333 -4.04124 26535 ft 391 kts 260°
2026-04-28 17:59 62.16805 -4.09817 26134 ft 389 kts 260°
2026-04-28 17:59 62.16283 -4.15441 25727 ft 386 kts 260°
2026-04-28 17:59 62.15767 -4.21006 25326 ft 382 kts 260°
2026-04-28 18:00 62.15256 -4.26517 24932 ft 380 kts 260°
2026-04-28 18:00 62.14747 -4.31999 24541 ft 377 kts 260°
2026-04-28 18:00 62.14242 -4.37446 24154 ft 375 kts 260°
2026-04-28 18:00 62.13724 -4.42852 23767 ft 373 kts 259°
2026-04-28 18:01 62.13161 -4.48253 23387 ft 371 kts 259°
2026-04-28 18:01 62.12587 -4.53562 23011 ft 368 kts 258°
2026-04-28 18:01 62.12014 -4.58836 22633 ft 365 kts 258°
2026-04-28 18:01 62.11448 -4.64070 22259 ft 363 kts 258°
2026-04-28 18:02 62.10940 -4.68792 21922 ft 361 kts 258°
2026-04-28 18:02 62.10386 -4.73965 21548 ft 359 kts 258°
2026-04-28 18:02 62.09842 -4.79093 21177 ft 356 kts 257°
2026-04-28 18:02 62.09305 -4.84217 20802 ft 352 kts 258°
2026-04-28 18:03 62.08782 -4.89265 20431 ft 349 kts 258°
2026-04-28 18:03 62.08255 -4.94255 20061 ft 346 kts 257°
2026-04-28 18:03 62.07691 -4.99190 19688 ft 343 kts 256°
2026-04-28 18:03 62.07116 -5.04075 19318 ft 341 kts 256°
2026-04-28 18:04 62.06545 -5.08932 18948 ft 339 kts 256°
2026-04-28 18:04 62.05986 -5.13735 18578 ft 336 kts 256°
2026-04-28 18:04 62.05431 -5.18544 18267 ft 332 kts 256°
2026-04-28 18:04 62.04887 -5.23294 18020 ft 333 kts 256°
2026-04-28 18:05 62.04343 -5.28052 17770 ft 333 kts 256°
2026-04-28 18:05 62.03981 -5.31213 17606 ft 332 kts 256°
2026-04-28 18:05 62.03258 -5.37538 17275 ft 331 kts 256°
2026-04-28 18:05 62.02716 -5.42269 17009 ft 331 kts 256°
2026-04-28 18:06 62.02178 -5.46960 16642 ft 325 kts 256°
2026-04-28 18:06 62.01648 -5.51595 16266 ft 319 kts 256°
2026-04-28 18:06 62.01131 -5.56110 15892 ft 313 kts 256°
2026-04-28 18:06 62.00624 -5.60533 15520 ft 308 kts 256°
2026-04-28 18:07 62.00123 -5.64892 15147 ft 303 kts 256°
2026-04-28 18:07 61.99629 -5.69189 14774 ft 299 kts 255°
2026-04-28 18:07 61.99140 -5.73417 14446 ft 293 kts 255°
2026-04-28 18:07 61.98664 -5.77516 14385 ft 282 kts 255°
2026-04-28 18:08 61.98195 -5.81560 14385 ft 284 kts 255°
2026-04-28 18:08 61.97721 -5.85634 14386 ft 285 kts 255°
2026-04-28 18:08 61.97249 -5.89692 14390 ft 284 kts 255°
2026-04-28 18:08 61.96778 -5.93749 14385 ft 284 kts 255°
2026-04-28 18:09 61.96306 -5.97804 14379 ft 284 kts 255°
2026-04-28 18:09 61.95831 -6.01869 14382 ft 285 kts 255°
2026-04-28 18:09 61.95359 -6.05902 14374 ft 279 kts 255°
2026-04-28 18:09 61.94909 -6.09766 14368 ft 264 kts 255°
2026-04-28 18:10 61.94478 -6.13490 14377 ft 258 kts 256°
2026-04-28 18:10 61.94049 -6.17205 14205 ft 263 kts 255°
2026-04-28 18:10 61.93591 -6.20921 13957 ft 261 kts 254°
2026-04-28 18:10 61.93107 -6.24586 13657 ft 259 kts 253°
2026-04-28 18:11 61.92619 -6.28227 13286 ft 259 kts 253°
2026-04-28 18:11 61.92132 -6.31860 12914 ft 258 kts 253°
2026-04-28 18:11 61.91648 -6.35486 12540 ft 257 kts 253°
2026-04-28 18:11 61.91161 -6.39123 12165 ft 256 kts 253°
2026-04-28 18:12 61.90675 -6.42727 11792 ft 255 kts 253°
2026-04-28 18:12 61.90190 -6.46307 11421 ft 254 kts 253°
2026-04-28 18:12 61.89704 -6.49883 11045 ft 254 kts 253°
2026-04-28 18:12 61.89218 -6.53445 10673 ft 253 kts 253°
2026-04-28 18:13 61.88734 -6.56986 10396 ft 248 kts 253°
2026-04-28 18:13 61.88243 -6.60408 10365 ft 242 kts 249°
2026-04-28 18:13 61.87427 -6.63544 10367 ft 246 kts 233°
2026-04-28 18:13 61.86196 -6.66036 10362 ft 248 kts 216°
2026-04-28 18:14 61.84656 -6.67641 10366 ft 251 kts 200°
2026-04-28 18:14 61.82923 -6.68217 10370 ft 258 kts 184°
2026-04-28 18:14 61.81144 -6.67660 10368 ft 266 kts 164°
2026-04-28 18:14 61.79579 -6.65547 10375 ft 277 kts 136°
2026-04-28 18:15 61.78494 -6.62180 10378 ft 278 kts 122°
2026-04-28 18:15 61.77631 -6.58630 10373 ft 266 kts 121°
2026-04-28 18:15 61.76784 -6.55202 10381 ft 266 kts 122°
2026-04-28 18:15 61.75996 -6.51639 10226 ft 274 kts 107°
2026-04-28 18:16 61.75877 -6.47677 10025 ft 275 kts 78°
2026-04-28 18:16 61.76627 -6.44029 9782 ft 274 kts 48°
2026-04-28 18:16 61.78062 -6.41552 9537 ft 267 kts 20°
2026-04-28 18:16 61.79792 -6.40428 9293 ft 260 kts
2026-04-28 18:17 61.81556 -6.40555 9040 ft 250 kts 340°
2026-04-28 18:17 61.83133 -6.41878 8794 ft 243 kts 322°
2026-04-28 18:17 61.84414 -6.44054 8546 ft 235 kts 307°
2026-04-28 18:17 61.85426 -6.46696 8399 ft 229 kts 300°
2026-04-28 18:18 61.86301 -6.49485 8386 ft 230 kts 296°
2026-04-28 18:18 61.87133 -6.52382 8379 ft 231 kts 296°
2026-04-28 18:18 61.87956 -6.55276 8379 ft 231 kts 296°
2026-04-28 18:18 61.88510 -6.57218 8381 ft 230 kts 296°
2026-04-28 18:19 61.89317 -6.61285 8372 ft 223 kts 269°
2026-04-28 18:19 61.89015 -6.64392 8382 ft 219 kts 239°
2026-04-28 18:19 61.87926 -6.66615 8383 ft 225 kts 208°
2026-04-28 18:19 61.86381 -6.67212 8385 ft 236 kts 177°
2026-04-28 18:20 61.84833 -6.65923 8384 ft 251 kts 147°
2026-04-28 18:20 61.83710 -6.63060 8394 ft 260 kts 123°
2026-04-28 18:20 61.82899 -6.59626 8386 ft 261 kts 119°
2026-04-28 18:20 61.82141 -6.56160 8363 ft 262 kts 118°
2026-04-28 18:21 61.81397 -6.52637 8130 ft 266 kts 111°
2026-04-28 18:21 61.81166 -6.48796 7878 ft 268 kts 82°
2026-04-28 18:21 61.81803 -6.45173 7628 ft 266 kts 51°
2026-04-28 18:21 61.83164 -6.42656 7379 ft 261 kts 20°
2026-04-28 18:22 61.84869 -6.42024 7126 ft 247 kts 342°
2026-04-28 18:22 61.86321 -6.43593 6880 ft 231 kts 308°
2026-04-28 18:22 61.87205 -6.46296 6633 ft 222 kts 288°
2026-04-28 18:22 61.87727 -6.49314 6377 ft 218 kts 283°
2026-04-28 18:23 61.88180 -6.52351 6126 ft 217 kts 282°
2026-04-28 18:23 61.88570 -6.55395 5872 ft 214 kts 279°
2026-04-28 18:23 61.88954 -6.58415 5619 ft 215 kts 285°
2026-04-28 18:23 61.89550 -6.61304 5363 ft 215 kts 291°
2026-04-28 18:24 61.90248 -6.64114 5108 ft 215 kts 292°
2026-04-28 18:24 61.90482 -6.65020 5024 ft 214 kts 292°
2026-04-28 18:24 61.91663 -6.69598 4598 ft 212 kts 292°
2026-04-28 18:24 61.92357 -6.72306 4362 ft 207 kts 292°
2026-04-28 18:25 61.93027 -6.74915 4112 ft 199 kts 292°
2026-04-28 18:25 61.93665 -6.77403 3980 ft 186 kts 292°
2026-04-28 18:25 61.94251 -6.79687 3974 ft 168 kts 291°
2026-04-28 18:26 61.95335 -6.83972 3984 ft 166 kts 291°
2026-04-28 18:26 61.95877 -6.86101 3985 ft 165 kts 291°
2026-04-28 18:26 61.96421 -6.88243 3985 ft 166 kts 291°
2026-04-28 18:26 61.96965 -6.90387 3982 ft 165 kts 291°
2026-04-28 18:27 61.97506 -6.92513 3982 ft 161 kts 291°
2026-04-28 18:27 61.98023 -6.94553 3981 ft 156 kts 290°
2026-04-28 18:27 61.98517 -6.96498 3970 ft 145 kts 290°
2026-04-28 18:27 61.98983 -6.98335 3779 ft 142 kts 289°
2026-04-28 18:28 61.99431 -7.00141 3518 ft 136 kts 289°
2026-04-28 18:28 61.99865 -7.01911 3277 ft 136 kts 290°
2026-04-28 18:28 62.00323 -7.03642 3090 ft 136 kts 290°
2026-04-28 18:28 62.00764 -7.05427 2854 ft 137 kts 289°
2026-04-28 18:29 62.01209 -7.07190 2626 ft 135 kts 291°
2026-04-28 18:29 62.01654 -7.08940 2409 ft 136 kts 288°
2026-04-28 18:29 62.02077 -7.10703 2199 ft 135 kts 287°
2026-04-28 18:29 62.02522 -7.12454 1971 ft 137 kts 292°
2026-04-28 18:30 62.02996 -7.14172 1766 ft 135 kts 288°
2026-04-28 18:30 62.03128 -7.14772 1711 ft 133 kts 285°
2026-04-28 18:30 62.03899 -7.17738 1364 ft 141 kts 295°
2026-04-28 18:30 62.04338 -7.19633 1101 ft 147 kts 285°
2026-04-28 18:31 62.04846 -7.21597 944 ft 152 kts 294°
2026-04-28 18:31 62.05298 -7.23497 686 ft 145 kts 288°
2026-04-28 18:31 62.05787 -7.25396 317 ft 151 kts 301°
2026-04-28 18:31 62.06242 -7.27233 317 ft 118 kts 298°
2026-04-28 18:32 62.06507 -7.28305 330 ft 51 kts 298°
2026-04-28 18:32 62.06624 -7.28775 319 ft 33 kts 296°
2026-04-28 18:32 62.06696 -7.29119 314 ft 11 kts 287°
2026-04-28 18:32 62.06720 -7.29158 314 ft 7 kts 72°
2026-04-28 18:33 62.06684 -7.29019 315 ft 17 kts 124°
2026-04-28 18:33 62.06607 -7.28741 321 ft 25 kts 120°
2026-04-28 18:33 62.06542 -7.28453 329 ft 18 kts 117°
2026-04-28 18:33 62.06490 -7.28240 331 ft 16 kts 112°
2026-04-28 18:34 62.06514 -7.28103 331 ft 9 kts 26°
2026-04-28 18:34 62.06578 -7.28064 331 ft 10 kts
2026-04-28 18:34 62.06639 -7.28057 331 ft 6 kts 27°
2026-04-28 18:34 62.06644 -7.27971 331 ft 6 kts 108°
2026-04-28 18:35 62.06635 -7.27884 331 ft 4 kts 65°
2026-04-28 18:35 62.06659 -7.27848 331 ft 3 kts 29°
2026-04-28 18:35 62.06665 -7.27841 331 ft 0 kts 29°